Hourly Data Report for January 02, 2018

All times are specified in Local Standard Time (LST). Add 1 hour to adjust for Daylight Saving Time where and when it is observed.

LONDON A
ONTARIO

43°01'59.000" N
81°09'04.000" W
278.00 m
6144473
71623
YXU

Download Data

Hourly Data (January 2018)
Hourly Data Report for January 2, 2018
Temp Definition
°C
Dew Point Temp Definition
°C
Rel Hum Definition
%
Wind Dir Definition
10's deg

Wind Spd Definition
km/h
Visibility Definition
km
Stn Press Definition
kPa
Hmdx Definition


Wind Chill Definition


Weather Definition


TIME
00:00 Legend Double Dagger -11.9 -15.9 73 25 24 19.3 99.62   -21 Snow Showers
01:00 Legend Double Dagger -12.1 -16.6 69 25 32 24.1 99.62   -23 Cloudy
02:00 Legend Double Dagger -12.3 -16.9 69 25 27 24.1 99.64   -22 LegendNANA
03:00 Legend Double Dagger -12.8 -17.3 70 25 27 24.1 99.68   -23 LegendNANA
04:00 Legend Double Dagger -13.9 -18.1 71 25 28 24.1 99.68   -24 Cloudy
05:00 Legend Double Dagger -14.9 -18.7 73 25 18 24.1 99.62   -24 LegendNANA
06:00 Legend Double Dagger -15.5 -18.9 75 24 17 24.1 99.55   -24 LegendNANA
07:00 Legend Double Dagger -15.2 -18.2 78 25 21 24.1 99.49   -25 Mostly Cloudy
08:00 Legend Double Dagger -15.2 -17.8 81 23 23 24.1 99.47   -25 LegendNANA
09:00 Legend Double Dagger -14.6 -17.2 81 23 25 9.7 99.43   -25 Snow Showers,Blowing Snow
10:00 Legend Double Dagger -13.0 -16.2 77 23 31 19.3 99.39   -24 Snow Showers,Blowing Snow
11:00 Legend Double Dagger -11.8 -15.5 74 25 33 19.3 99.36   -22 Snow Showers,Blowing Snow
12:00 Legend Double Dagger -10.5 -14.6 72 24 26 19.3 99.27   -20 Snow Showers,Blowing Snow
13:00 Legend Double Dagger -10.9 -14.8 73 24 32 19.3 99.18   -21 Snow Showers,Blowing Snow
14:00 Legend Double Dagger -11.1 -14.8 75 22 27 24.1 99.09   -21 Snow Showers,Blowing Snow
15:00 Legend Double Dagger -12.0 -15.7 74 22 29 24.1 99.05   -22 Snow Showers,Blowing Snow
16:00 Legend Double Dagger -12.9 -16.6 74 22 28 24.1 99.03   -23 Blowing Snow
17:00 Legend Double Dagger -14.1 -17.4 76 21 31 24.1 98.98   -25 Blowing Snow
18:00 Legend Double Dagger -15.2 -18.2 78 22 25 24.1 98.98   -25 Blowing Snow
19:00 Legend Double Dagger -15.8 -18.9 77 22 25 24.1 98.97   -26 Ice Crystals,Blowing Snow
20:00 Legend Double Dagger -16.0 -19.9 72 22 22 24.1 98.92   -26 Ice Crystals,Blowing Snow
21:00 Legend Double Dagger -15.9 -20.5 68 21 23 24.1 98.87   -26 Ice Crystals,Blowing Snow
22:00 Legend Double Dagger -16.1 -20.9 67 21 25 24.1 98.79   -27 Cloudy
23:00 Legend Double Dagger -16.2 -21.0 67 22 28 24.1 98.81   -27 LegendNANA

Notes on Data Quality.

Legend

  • E = Estimated
  • M = Missing
  • NA = Not Available
  • ‡ = Partner data that is not subject to review by the National Climate Archives
Date modified: